Location: Niles Junction
(37.5763°N, 121.9714°W)
Time: 03:50:24
(UTC+00:00)

Cosmos 2180 Rocket - Pass Details

Date: 29 October 2020
Orbit: 953 x 1005 km, 82.9° (Epoch: 23 November)

Event Time Altitude Azimuth Distance (km) Brightness Sun altitude
Rises 12:11:16 0° 350° (N) 3,685 7.5 -28.1°
Reaches altitude 10° 12:13:49 10° 348° (NNW) 2,726 6.7 -27.6°
Enters shadow 12:16:58 32° 340° (NNW) 1,617 5.5 -27.0°
Exits shadow 12:19:18 62° 304° (WNW) 1,079 4.4 -26.5°
Maximum altitude 12:19:59 67° 267° (W) 1,040 4.3 -26.4°
Drops below altitude 10° 12:26:03 10° 186° (S) 2,679 6.7 -25.2°
Sets 12:28:32 0° 183° (S) 3,617 7.4 -24.7°
